Weather observations for the past three days for
Genesee County Airport
Imperial (Metric)
Date Time (edt) Wind (mph) Vis. (mi.) Weather Sky Cond. Temperature (ºF) Relative Humidity Wind Chill (°F) Heat Index (°F) Pressure Precipitation (in)
Air Dwpt 6 hour altimeter (in) sea level (mb) 1 hr 3 hr 6 hr
Max. Min.
13 08:56 SW 12 G 18 10.00 A Few Clouds FEW075 73.9 54 50% 29.92 1012.7
13 07:56 SW 9 10.00 A Few Clouds FEW080 71.1 54 71.1 59 55% 29.93 1013.0
13 06:56 SW 8 10.00 Fair CLR 66.9 53.1 61% 29.93 1013.0
13 05:56 SW 9 10.00 A Few Clouds FEW085 64 52 65% 29.92 1012.4
13 04:56 S 9 10.00 Partly Cloudy SCT080 64 52 65% 29.92 1012.6
13 03:56 SW 8 10.00 A Few Clouds FEW110 62.1 50 65% 29.93 1013.1
13 02:56 S 6 10.00 Partly Cloudy SCT075 60.1 46.9 62% 29.94 1013.4
13 01:56 S 7 10.00 Fair CLR 59 46.9 72 59 64% 29.95 1013.9
13 00:56 S 5 10.00 Fair CLR 59 48.9 69% 29.95 1014.0
12 23:56 S 5 10.00 Fair CLR 60.1 48.9 67% 29.96 1014.4
12 22:56 S 6 10.00 Fair CLR 62.1 50 65% 29.98 1014.9
12 21:56 S 6 10.00 Fair CLR 64 48 56% 29.98 1015.1
12 20:56 SW 3 10.00 Fair CLR 68 45 44% 29.98 1014.9
12 19:56 W 7 10.00 Fair CLR 72 45 73.9 69.1 38% 29.98 1015.1
12 18:56 W 6 10.00 Fair CLR 73.9 46.9 38% 29.98 1015.0
12 17:56 W 9 10.00 Fair CLR 73 46 38% 29.99 1015.3
12 16:56 SW 5 10.00 A Few Clouds FEW002 72 46.9 41% 30 1015.7
12 15:56 Vrbl 3 10.00 Fair CLR 71.1 48 44% 30.02 1016.4
12 14:56 W 9 10.00 A Few Clouds FEW002 70 46.9 44% 30.02 1016.7
12 13:56 NW 6 10.00 Fair CLR 69.1 50 69.1 55 51% 30.03 1016.8
12 12:56 NW 8 10.00 Partly Cloudy FEW002 SCT037 SCT046 68 48.9 51% 30.04 1017.3
12 11:56 Vrbl 7 10.00 A Few Clouds FEW034 66 51.1 59% 30.05 1017.6
12 10:56 Calm 5.00 A Few Clouds with Haze FEW032 64 52 65% 30.05 1017.5
12 09:56 Calm 10.00 Fair CLR 62.1 50 65% 30.06 1017.7
12 08:56 Calm 10.00 Fair CLR 59 53.1 81% 30.06 1017.7
12 07:56 S 3 10.00 Fair CLR 55 53.1 55 48 93% 30.05 1017.6
12 06:56 SW 5 9.00 Fair CLR 52 52 100% 30.05 1017.6
12 05:56 S 5 7.00 Fair CLR 50 50 100% 49 30.04 1017.3
12 04:56 Calm 5.00 Fog/Mist CLR 48.9 48.9 100% 30.03 1016.9
12 03:56 S 5 7.00 Fair CLR 50 50 100% 49 30.02 1016.7
12 02:56 Calm 5.00 Fog/Mist CLR 50 50 100% 30.03 1017.0
12 01:56 S 5 10.00 Fair CLR 52 52 55.9 52 100% 30.03 1016.9
12 00:56 S 3 8.00 Fair CLR 53.1 53.1 100% 30.03 1017.0
11 23:56 S 3 10.00 Fair CLR 53.1 53.1 100% 30.04 1017.2
11 22:56 Calm 10.00 Overcast OVC039 55.9 54 93% 30.04 1017.3
11 21:56 E 3 10.00 Overcast OVC037 55.9 54 93% 30.04 1017.3
11 20:56 SE 3 10.00 Overcast OVC035 55.9 54 93% 30.03 1016.8
11 19:56 E 5 10.00 Overcast OVC035 55.9 54 59 55.9 93% 30.02 1016.5
11 18:56 NW 3 10.00 Overcast SCT022 OVC030 57 52 83% 30.01 1016.1
11 17:56 N 3 10.00 Overcast BKN022 OVC030 57.9 51.1 78% 30 1016.0
11 16:56 NW 6 10.00 Overcast OVC023 57 51.1 81% 30 1015.9
11 15:56 NW 8 10.00 Overcast FEW017 OVC033 57.9 51.1 78% 30 1016.0
11 14:56 Vrbl 5 10.00 Overcast FEW023 OVC031 57.9 51.1 78% 30.01 1016.1
11 13:56 W 8 10.00 Overcast SCT018 OVC023 55.9 51.1 57 51.1 84% 30.01 1016.3
11 12:56 Calm 8.00 Overcast BKN017 BKN027 OVC036 57 50 78% 30.01 1016.4
11 11:56 NW 5 10.00 Overcast BKN019 BKN025 OVC037 55.9 50 81% 30.01 1016.1
11 10:56 E 3 9.00 Overcast BKN009 OVC015 54 51.1 90% 30.01 1016.4
11 09:56 N 6 7.00 Overcast OVC005 51.1 51.1 100% 30 1016.0
Date Time (edt) Wind (mph) Vis. (mi.) Weather Sky Cond. Air Dwpt Max. Min. Relative Humidity Wind Chill (°F) Heat Index (°F) altimeter (in) sea level (mb) 1 hr 3 hr 6 hr
6 hour
Temperature (ºF) Pressure Precipitation (in)